Dewpoint
44 44 44 44 45 43 41 42 43 45 46 42 39 38 37 39 40 40 39 37 37 39 39 39 39 39 35 34 34 33 33 33 32 32 34 39 43 42 41 42 41 43 40
43 43 43 42 41 42 40 41 43 44 42 41 36 35 34 36 39 38 36 36 36 35 35 36 35 33 39 38 34 38 36 37 34 36 36 34 39 43 41 44 39 38 40
44 42 44 45 44 42 42 43 43 40 37 36 35 35 34 35 36 37 37 35 35 34 34 34 34 36 36 35 36 34 32 32 32 30 31 31 33 35 39 40 40 41 38
45 44 44 45 46 44 41 41 41 39 38 37 36 35 35 35 35 36 37 37 37 34 35 35 35 34 34 36 34 35 33 33 33 29 28 28 30 35 34 33 35 36 36
44 43 44 45 45 43 42 39 39 39 38 38 38 38 37 35 27 35 36 37 38 37 37 35 35 35 35 35 32 35 36 32 30 29 27 27 29 30 33 35 36 36 38
44 41 43 43 43 43 43 42 41 39 39 39 39 39 39 35 37 35 37 38 40 40 38 37 37 35 32 34 35 35 35 34 34 30 29 29 34 35 34 35 35 37 36
41 39 39 41 42 42 43 43 42 43 43 43 42 41 41 41 42 41 41 39 40 41 41 38 35 29 36 34 35 36 36 38 37 35 34 33 35 35 37 37 37 37 36
39 39 40 41 41 41 41 42 44 43 44 43 42 42 42 41 43 43 43 43 41 42 42 40 38 38 36 34 32 33 34 33 35 31 34 35 37 37 38 37 37 37 38
38 39 39 38 39 40 41 41 43 43 43 43 42 43 43 43 43 43 43 41 40 40 39 39 37 36 37 36 32 32 33 33 33 36 37 38 38 38 39 38 38 38 37
37 38 38 40 41 42 43 44 44 44 43 40 42 44 44 44 42 42 43 39 39 34 39 38 39 36 35 36 34 32 31 31 32 32 34 35 37 37 38 39 40 37 37
40 40 42 44 45 45 46 46 47 46 45 45 45 46 47 46 46 42 41 40 34 33 33 30 31 36 36 36 37 33 32 34 32 33 32 33 34 34 34 35 41 39 36
42 43 43 45 44 42 47 48 48 48 48 46 47 48 47 48 44 42 39 38 38 35 32 30 33 35 35 37 35 33 36 35 31 31 32 32 32 32 35 40 40 40 40
44 44 45 45 44 45 47 47 48 48 49 46 45 48 51 48 47 43 40 37 37 31 30 33 35 35 35 35 36 37 34 29 29 30 33 33 33 35 39 40 40 40 39
44 45 45 46 46 47 44 43 43 46 45 47 47 48 45 46 47 45 40 39 36 34 35 31 32 34 33 33 32 29 27 27 27 29 30 32 33 35 37 39 37 37 36
44 44 45 43 45 46 47 45 44 47 44 42 45 45 42 41 40 33 30 27 29 29 30 29 27 26 25 25 26 26 28 26 26 29 30 30 32 35 36 38 37 37 35
44 41 40 43 45 47 46 48 41 42 42 41 39 40 40 39 34 34 35 35 34 33 28 26 25 24 23 23 23 23 24 26 26 28 30 28 34 36 36 36 38 37 35
45 46 48 46 48 45 44 46 46 44 41 40 39 39 36 33 33 33 33 33 32 32 26 24 24 23 23 23 22 22 22 24 28 27 27 27 27 33 33 35 37 36 35
48 45 45 44 43 46 48 47 43 39 37 39 39 36 31 31 30 31 32 31 26 27 23 23 22 22 22 22 22 22 23 24 24 24 25 25 27 28 31 33 36 36 36
45 41 40 39 46 48 44 42 37 36 33 30 32 32 30 32 32 33 32 28 25 23 23 22 23 23 22 21 22 23 24 22 23 23 23 25 27 28 29 30 31 32 35
41 43 41 42 44 44 39 35 32 31 30 29 27 27 27 28 26 27 27 26 25 24 24 24 23 23 23 20 21 22 20 21 22 21 22 25 26 28 29 29 30 30 35
41 42 36 42 40 38 35 33 30 30 28 26 27 28 28 26 26 26 25 25 25 25 25 25 22 21 21 18 18 21 21 20 20 20 23 24 26 27 28 28 28 29 31
39 41 39 38 38 36 33 31 30 29 28 26 27 28 29 28 28 27 27 26 26 27 26 27 24 23 19 17 19 21 20 20 20 21 23 23 26 28 28 28 28 28 30
37 37 37 37 37 34 33 30 30 30 29 28 28 27 27 28 28 28 28 28 28 28 28 27 27 24 21 21 23 21 18 20 21 23 24 25 27 28 28 27 27 28 29
38 37 36 35 34 33 32 31 30 30 30 29 30 29 30 30 30 31 31 31 30 30 28 27 26 25 23 23 21 19 20 25 26 24 26 28 28 28 27 27 27 28 28
37 36 35 35 34 33 33 31 31 30 29 29 30 31 29 30 30 31 31 31 30 30 28 27 26 24 21 22 21 22 28 28 27 28 28 28 27 27 27 28 27 27 28
37 36 35 35 34 34 34 33 32 31 32 31 32 31 32 32 32 33 32 32 30 28 28 26 25 23 22 21 22 27 28 28 28 28 29 28 27 27 27 27 27 27 27
Lifted_Index
11 11 12 13 13 14 15 15 14 13 14 14 15 16 16 16 15 15 15 15 15 15 15 15 15 15 15 15 15 15 15 15 15 16 15 15 15 15 15 15 14 14 14
12 12 13 13 14 14 15 14 14 14 14 15 15 16 16 15 15 15 15 15 15 15 15 15 15 15 15 15 15 15 15 15 15 15 15 15 14 14 14 14 14 14 14
12 12 13 13 13 14 14 14 14 14 14 15 15 15 15 15 14 14 14 14 14 15 15 15 15 15 15 14 14 14 14 14 14 14 14 14 14 13 13 13 13 14 14
11 11 11 11 12 13 14 14 13 13 14 14 13 13 13 13 13 13 13 13 13 13 14 14 14 14 14 14 13 13 13 12 12 12 12 12 12 12 12 12 13 13 13
10 10 10 10 11 12 13 13 13 13 13 12 12 11 11 11 12 12 12 12 12 12 12 12 12 12 13 13 12 12 12 11 11 11 11 11 11 11 11 11 12 12 13
10 10 10 10 10 11 11 12 12 12 12 11 10 10 9 10 11 11 11 11 10 10 10 10 10 11 11 11 11 11 11 10 10 10 10 10 10 10 10 10 10 11 11
10 9 9 9 10 10 10 10 10 10 10 9 9 8 8 8 9 10 10 9 8 8 8 8 8 9 9 10 10 10 10 10 9 9 9 9 10 10 10 10 10 9 9
9 9 9 9 9 9 9 8 8 8 8 8 7 7 7 7 7 8 8 8 7 6 6 7 7 8 9 10 10 10 9 9 9 9 9 9 10 10 10 10 9 8 8
8 8 8 8 8 8 7 7 7 7 6 6 6 6 5 5 6 7 7 6 6 5 6 6 7 8 9 10 10 10 10 9 9 10 10 10 10 10 10 10 9 8 8
8 7 7 6 6 6 5 5 5 5 5 5 4 4 4 4 4 5 5 5 5 5 5 6 7 8 9 10 10 10 10 10 10 10 10 10 10 10 10 10 9 9 8
6 5 4 4 4 4 4 3 3 3 3 3 3 3 3 3 3 4 5 5 5 5 6 6 7 8 9 10 10 10 10 10 10 10 10 10 10 10 10 10 10 9 9
4 3 3 2 3 3 3 2 2 2 2 2 2 2 2 2 2 4 5 6 6 6 7 7 7 8 9 10 10 10 10 10 10 10 10 10 10 10 10 10 10 9 9
2 2 2 2 2 2 2 2 2 2 1 1 1 1 1 2 2 3 4 5 6 7 7 8 8 9 9 9 10 10 10 10 10 10 10 10 10 11 11 11 10 10 9
2 2 2 2 1 1 1 1 1 1 1 1 1 2 2 2 3 4 5 5 6 7 8 8 8 8 9 9 9 9 9 10 10 10 10 10 11 11 11 11 10 9 9
1 1 1 1 1 0 0 1 1 1 2 2 2 3 3 3 4 5 6 7 7 8 8 8 8 8 8 9 9 9 10 10 10 10 10 11 11 12 11 11 10 10 9
0 0 0 0 0 0 0 0 1 1 2 3 4 4 4 5 5 6 7 8 8 9 9 8 8 8 8 9 9 10 10 10 10 11 11 11 12 12 11 11 11 10 9
-0 -0 -0 -0 -0 -0 -0 0 1 1 2 3 4 5 6 6 6 7 8 8 8 8 8 8 8 8 9 9 10 10 10 10 11 11 11 12 13 13 12 11 11 10 9
-1 -0 -0 -0 -0 -0 -0 0 1 1 2 3 4 5 6 7 7 7 8 8 7 7 7 8 8 9 9 10 10 10 11 11 11 11 12 12 13 13 12 12 11 10 10
0 0 1 0 -0 -0 0 0 1 2 2 3 3 4 5 6 7 7 7 7 7 7 7 8 8 9 10 10 11 11 11 11 12 12 12 13 14 14 13 12 12 11 10
1 1 1 1 0 0 1 1 2 2 2 3 3 4 5 6 6 6 6 6 6 7 7 8 8 9 10 10 11 11 12 12 12 13 13 13 13 14 14 13 13 12 11
2 2 2 1 1 1 1 2 2 2 3 3 4 4 5 5 5 5 5 6 6 6 7 7 8 9 10 11 11 12 12 12 13 13 13 13 13 14 14 14 14 13 13
2 2 2 1 1 1 2 2 2 2 3 3 3 4 5 5 5 5 5 5 6 6 7 7 8 9 10 11 12 12 13 13 13 13 14 13 13 14 14 14 14 14 14
2 2 2 1 1 2 2 2 2 2 3 3 3 4 4 4 5 5 5 5 6 6 7 7 8 9 11 11 12 12 13 13 14 14 14 14 13 13 14 14 14 14 14
2 2 2 2 2 2 2 2 2 2 3 3 3 4 4 4 4 5 5 5 6 7 7 8 8 10 11 12 12 13 13 14 15 15 15 14 13 13 13 14 14 14 14
2 2 2 2 2 2 2 2 2 2 3 3 3 3 4 4 4 4 5 5 6 7 7 8 9 10 11 12 13 13 14 15 15 15 14 14 13 13 13 13 14 14 14
2 2 2 2 2 2 2 2 2 2 2 3 3 3 3 4 4 4 5 5 6 7 7 8 9 10 12 12 13 14 14 15 15 14 14 14 14 14 14 13 13 14 14